User: anonymous   Login
Location: �chenoz-la-M�line
(47.6009°N, 6.1354°E)
Time: 16:00:47
(UTC+00:00)
Language:

Cosmos 1953 Rocket - Orbit

View from above orbital plane
View from above orbital plane
View from above satellite
View from above satellite

Ground track
Ground track

The orbit data is extracted from the following two-line orbital elements,

1 19211U 88050B   21108.36382159  .00000082  00000-0  70893-5 0  9996
2 19211  82.5259 331.7970 0021877 175.9373 184.2023 14.83106482774451
Epoch (UTC): 18 April 2021 08:43:54
Eccentricity: 0.0021877
inclination: 82.5259°
perigee height: 604 km
apogee height: 635 km
right ascension of ascending node: 331.7970°
argument of perigee: 175.9373°
revolutions per day: 14.83106482
mean anomaly at epoch: 184.2023°
orbit number at epoch: 77445

The dashed part of the orbit path shows where the satellite is in the earth's shadow,  

DLR